User: anonymous   Login
Location: Albany
(35.0000°S, 118.0000°E)
Time: 05:15:36
(UTC-04:00)
Language:

Cosmos 1933 - Orbit

View from above orbital plane
View from above orbital plane
View from above satellite
View from above satellite

Ground track
Ground track

The orbit data is extracted from the following two-line orbital elements,

1 18958U 88020A   18168.88475155 -.00000144  00000-0 -12676-4 0  9993
2 18958  82.5297 110.9240 0013174 114.9866 245.2730 15.03453295646471
Epoch (UTC): 17 June 2018 21:14:02
Eccentricity: 0.0013174
inclination: 82.5297°
perigee height: 547 km
apogee height: 565 km
right ascension of ascending node: 110.9240°
argument of perigee: 114.9866°
revolutions per day: 15.03453295
mean anomaly at epoch: 245.2730°
orbit number at epoch: 64647

The dashed part of the orbit path shows where the satellite is in the earth's shadow,  

DLR